This is the latest recevied weather packets stored in our database for station/object G4WLC-1. If no packets are shown the sender has not sent any weather packets the latest 10 day(s).
| Time | Temp. | Humidity | Pressure | Rain* | Wind** | Luminosity | Snow |
|---|---|---|---|---|---|---|---|
| 1777730892 | 16.67° C | 70% | 1014.1 hPa | 0 mm | - | - | - |
| 1777730592 | 16.67° C | 70% | 1014 hPa | 0 mm | - | - | - |
| 1777730292 | 16.67° C | 66% | 1014.2 hPa | 0 mm | - | - | - |
| 1777729992 | 16.67° C | 65% | 1014.2 hPa | 0 mm | - | - | - |
| 1777729692 | 16.67° C | 66% | 1014.5 hPa | 0 mm | - | - | - |
| 1777729392 | 16.11° C | 68% | 1014.4 hPa | 0 mm | - | - | - |
| 1777729092 | 16.11° C | 66% | 1014.5 hPa | 0 mm | - | - | - |
| 1777728792 | 16.11° C | 67% | 1014.6 hPa | 0 mm | - | - | - |
| 1777728492 | 16.11° C | 65% | 1014.7 hPa | 0 mm | - | - | - |
| 1777728192 | 16.11° C | 66% | 1014.8 hPa | 0 mm | - | - | - |
| 1777727892 | 16.11° C | 70% | 1014.9 hPa | 0 mm | - | - | - |
| 1777727592 | 16.11° C | 68% | 1014.8 hPa | 0 mm | - | - | - |
| 1777727292 | 16.67° C | 68% | 1014.9 hPa | 0 mm | - | - | - |
| 1777726992 | 16.11° C | 70% | 1014.9 hPa | 0 mm | - | - | - |
| 1777726692 | 16.11° C | 71% | 1014.9 hPa | 0 mm | - | - | - |
| 1777726392 | 16.67° C | 68% | 1014.9 hPa | 0 mm | - | - | - |
| 1777726092 | 16.67° C | 64% | 1014.9 hPa | 0 mm | - | - | - |
| 1777725792 | 17.22° C | 68% | 1015.2 hPa | 0 mm | - | - | - |
| 1777725492 | 17.22° C | 68% | 1015.2 hPa | 0 mm | - | - | - |
| 1777725192 | 16.67° C | 69% | 1015.2 hPa | 0 mm | - | - | - |
| 1777724892 | 17.22° C | 67% | 1015.2 hPa | 0 mm | - | - | - |
| 1777724592 | 16.67° C | 65% | 1015.4 hPa | 0 mm | - | - | - |
| 1777724292 | 16.67° C | 67% | 1015.6 hPa | 0 mm | - | - | - |
| 1777723992 | 16.67° C | 65% | 1015.5 hPa | 0 mm | - | - | - |
| 1777723692 | 16.67° C | 66% | 1015.8 hPa | 0 mm | - | - | - |
* Rain latest hour (hover to see other rain measurements)
** Current wind speed in m/s (hover to see current wind gust speed)